Flag for Germany Weather past 2 weeks in Wunstorf, Lower Saxony, Germany

Now
55 °F

Low clouds.


Feels Like: 53 °F
Forecast: 54 / 75 °F
Wind: 9 mph from Southwest

Location: Wunstorf Airport

Current Time: Aug 28, 2015 at 8:16:11 AM

Latest Report: Aug 28, 2015 at 7:20 AM


Visibility: 4 mi

Pressure: 29.98 "Hg

Humidity: 94%

Dew point: 54 °F

Location of WunstorfLocation

Historic Weather in Wunstorf — Graph

°F

Wunstorf temperature yesterday

Maximum temperature yesterday: 72 °F (at 12:20 AM)
Minimum temperature yesterday: 57 °F (at 10:20 PM)
Average temperature yesterday: 66 °F

Past Weeks' High & Low Weather Summary

 TemperatureHumidityPressure
High82 °F (Aug 13, 4:20 PM)100% (Aug 16, 4:20 AM)30.27 "Hg (Aug 16, 4:20 AM)
Low54 °F (Aug 22, 5:20 AM)32% (Aug 22, 1:20 PM)29.59 "Hg (Aug 24, 6:20 PM)
Average67 °F74%29.93 "Hg
* Reported Aug 13 7:20 AM — Aug 28 7:20 AM, Wunstorf, Weather by CustomWeather, © 2015

Note: Actual official high and low records may vary slightly from our data, if they occured in-between our weather recording intervals... More about our weather records

Advertising

Wunstorf weather history for previous 24 hours

 ConditionsComfort  
Time TempWeatherWind HumidityBarometerVisibility
7:20 AM
Fri, Aug 28
55 °FLow clouds.9 mph94%29.98 "Hg4 mi
6:20 AM55 °FPassing clouds.5 mph94%29.95 "Hg4 mi
5:20 AM55 °FPassing clouds.5 mph94%29.95 "HgN/A
4:20 AM55 °FCool.7 mph94%29.92 "Hg3 mi
3:20 AM55 °FCool.7 mph94%29.92 "Hg3 mi
2:20 AM55 °FCool.6 mph100%29.89 "Hg3 mi
1:20 AM55 °FCool.3 mph94%29.89 "Hg2 mi
12:20 AM57 °FCool.7 mph88%29.89 "Hg2 mi
11:20 PM
Thu, Aug 27
57 °FCool.8 mph94%29.89 "Hg2 mi
10:20 PM57 °FCool.7 mph94%29.86 "Hg2 mi
9:20 PM59 °FCool.5 mph94%29.86 "Hg2 mi
8:20 PM59 °FCool.5 mph94%29.86 "Hg2 mi
7:20 PM59 °FRain. Broken clouds.7 mph94%29.83 "Hg4 mi
6:20 PM61 °FRain. Fog.5 mph94%29.83 "Hg3 mi
5:20 PM63 °FRain. Broken clouds.3 mph94%29.86 "Hg4 mi
4:20 PM64 °FLight rain. Mostly cloudy.7 mph83%29.86 "HgN/A
3:20 PM66 °FLight rain. More clouds than sun.6 mph73%29.83 "HgN/A
2:20 PM66 °FLight rain. More clouds than sun.8 mph73%29.83 "HgN/A
1:20 PM70 °FOvercast.8 mph60%29.83 "HgN/A
12:20 PM70 °FOvercast.14 mph64%29.83 "HgN/A
11:20 AM70 °FPartly sunny.9 mph69%29.83 "HgN/A
10:20 AM70 °FLight rain. Mostly cloudy.12 mph69%29.83 "HgN/A
9:20 AM70 °FPartly sunny.8 mph64%29.80 "HgN/A
8:20 AM68 °FBroken clouds.8 mph64%29.80 "HgN/A
Weather by CustomWeather, © 2015

See weather overviewHow to use our weather pages